Powrót do katalogu

STARLINK-36518

AktywnyŁącznośćVLEO
NORAD 67453·PAYLOAD·🇺🇸 United States

Wystrzelony Jan 14, 2026 z Cape Canaveral Space Force Station

Loading…

Następne Przeloty (najbliższe 24 godziny)

TLE

ŚwieżeSource: CelesTrak SupGP

Epoka: Sep 14, 2026, 20:57 UTC

1 67453C 26008J   26257.87340278  .00037833  00000+0  13705-2 0  2570
2 67453  43.0028 216.9591 0001383 259.7239  97.4629 15.27554849    17

Śledź STARLINK-36518 w czasie rzeczywistym z AllMySat

Download on the App Store